Time,TemperatureF,DewpointF,PressureIn,WindDirection,WindDirectionDegrees,WindSpeedMPH,WindSpeedGustMPH,Humidity,HourlyPrecipIn,Conditions,Clouds,dailyrainin,SoftwareType,DateUTC
2013-06-17 03:22:00,50.0,29.0,29.90,North,0,0.0,-999.0,44,0.00,,,-99.99,,2013-06-17 10:22:00,
2013-06-17 09:33:00,69.0,30.0,29.90,North,0,0.0,-999.0,23,0.00,,,-99.99,,2013-06-17 16:33:00,
2013-06-17 09:43:00,69.0,30.0,29.90,North,0,0.0,-999.0,23,0.00,,,-99.99,,2013-06-17 16:43:00,
2013-06-17 09:53:00,69.0,30.0,29.90,North,0,0.0,-999.0,23,0.00,,,-99.99,,2013-06-17 16:53:00,
2013-06-17 10:43:00,73.0,30.0,29.90,ENE,70,4.0,-999.0,20,0.00,,,-99.99,,2013-06-17 17:43:00,
2013-06-17 10:52:00,73.0,30.0,29.90,ENE,70,4.0,-999.0,20,0.00,,,-99.99,,2013-06-17 17:52:00,
2013-06-17 11:33:00,78.0,31.0,29.90,SE,140,7.0,-999.0,18,0.00,,,-99.99,,2013-06-17 18:33:00,
2013-06-17 11:43:00,78.0,31.0,29.90,SE,140,7.0,-999.0,18,0.00,,,-99.99,,2013-06-17 18:43:00,
2013-06-17 11:53:00,78.0,31.0,29.90,SE,140,7.0,-999.0,18,0.00,,,-99.99,,2013-06-17 18:53:00,
2013-06-17 12:33:00,80.0,27.0,29.90,ESE,110,3.0,-999.0,14,0.00,,,-99.99,,2013-06-17 19:33:00,
2013-06-17 12:43:00,80.0,27.0,29.90,ESE,110,3.0,-999.0,14,0.00,,,-99.99,,2013-06-17 19:43:00,
2013-06-17 12:53:00,80.0,27.0,29.90,ESE,110,3.0,-999.0,14,0.00,,,-99.99,,2013-06-17 19:53:00,
2013-06-17 13:43:00,78.0,41.0,29.89,North,0,0.0,-999.0,27,0.00,,,-99.99,,2013-06-17 20:43:00,
2013-06-17 13:52:00,78.0,41.0,29.89,North,0,0.0,-999.0,27,0.00,,,-99.99,,2013-06-17 20:52:00,
2013-06-17 14:33:00,77.0,46.0,29.88,SE,130,2.0,-999.0,33,0.00,,,-99.99,,2013-06-17 21:33:00,
2013-06-17 14:43:00,77.0,46.0,29.88,SE,130,2.0,-999.0,33,0.00,,,-99.99,,2013-06-17 21:43:00,
2013-06-17 14:52:00,77.0,46.0,29.88,SE,130,2.0,-999.0,33,0.00,,,-99.99,,2013-06-17 21:52:00,
2013-06-17 15:33:00,78.0,40.0,29.87,SE,140,1.0,-999.0,26,0.00,,,-99.99,,2013-06-17 22:33:00,
2013-06-17 15:43:00,78.0,40.0,29.87,SE,140,1.0,-999.0,26,0.00,,,-99.99,,2013-06-17 22:43:00,
2013-06-17 15:53:00,78.0,40.0,29.87,SE,140,1.0,-999.0,26,0.00,,,-99.99,,2013-06-17 22:53:00,
2013-06-17 16:32:00,76.0,41.0,29.86,North,0,0.0,-999.0,28,0.00,,,-99.99,,2013-06-17 23:32:00,
2013-06-17 16:42:00,76.0,41.0,29.86,North,0,0.0,-999.0,28,0.00,,,-99.99,,2013-06-17 23:42:00,
2013-06-17 16:52:00,76.0,41.0,29.86,North,0,0.0,-999.0,28,0.00,,,-99.99,,2013-06-17 23:52:00,
2013-06-17 17:32:00,74.0,40.0,29.84,North,0,0.0,-999.0,29,0.00,,,-99.99,,2013-06-18 00:32:00,
2013-06-17 17:43:00,74.0,40.0,29.84,North,0,0.0,-999.0,29,0.00,,,-99.99,,2013-06-18 00:43:00,
2013-06-17 17:52:00,74.0,40.0,29.84,North,0,0.0,-999.0,29,0.00,,,-99.99,,2013-06-18 00:52:00,
2013-06-17 18:34:00,71.0,45.0,29.84,South,180,1.0,-999.0,40,0.00,,,-99.99,,2013-06-18 01:34:00,
2013-06-17 18:44:00,71.0,45.0,29.84,South,180,1.0,-999.0,40,0.00,,,-99.99,,2013-06-18 01:44:00,
2013-06-17 18:53:00,71.0,45.0,29.84,South,180,1.0,-999.0,40,0.00,,,-99.99,,2013-06-18 01:53:00,
2013-06-17 19:22:00,69.0,48.0,29.83,SW,230,2.0,-999.0,48,0.00,,,-99.99,,2013-06-18 02:22:00,
2013-06-17 19:34:00,69.0,48.0,29.83,SW,230,2.0,-999.0,48,0.00,,,-99.99,,2013-06-18 02:34:00,
2013-06-17 19:43:00,69.0,48.0,29.83,SW,230,2.0,-999.0,48,0.00,,,-99.99,,2013-06-18 02:43:00,
2013-06-17 19:53:00,69.0,48.0,29.83,SW,230,2.0,-999.0,48,0.00,,,-99.99,,2013-06-18 02:53:00,
2013-06-17 20:23:00,67.0,49.0,29.83,North,0,0.0,-999.0,52,0.00,,,-99.99,,2013-06-18 03:23:00,
2013-06-17 20:34:00,67.0,49.0,29.83,North,0,0.0,-999.0,52,0.00,,,-99.99,,2013-06-18 03:34:00,
2013-06-17 20:42:00,67.0,49.0,29.83,North,0,0.0,-999.0,52,0.00,,,-99.99,,2013-06-18 03:42:00,
2013-06-17 20:53:00,67.0,49.0,29.83,North,0,0.0,-999.0,52,0.00,,,-99.99,,2013-06-18 03:53:00,
2013-06-17 21:22:00,65.0,47.0,29.83,North,0,0.0,-999.0,53,0.00,,,-99.99,,2013-06-18 04:22:00,
2013-06-17 21:34:00,65.0,47.0,29.83,North,0,0.0,-999.0,53,0.00,,,-99.99,,2013-06-18 04:34:00,
2013-06-17 21:43:00,65.0,47.0,29.83,North,0,0.0,-999.0,53,0.00,,,-99.99,,2013-06-18 04:43:00,
2013-06-17 21:53:00,65.0,47.0,29.83,North,0,0.0,-999.0,53,0.00,,,-99.99,,2013-06-18 04:53:00,
2013-06-17 22:22:00,62.0,48.0,29.84,North,0,0.0,-999.0,61,0.00,,,-99.99,,2013-06-18 05:22:00,
2013-06-17 22:33:00,62.0,48.0,29.84,North,0,0.0,-999.0,61,0.00,,,-99.99,,2013-06-18 05:33:00,
2013-06-17 22:43:00,62.0,48.0,29.84,North,0,0.0,-999.0,61,0.00,,,-99.99,,2013-06-18 05:43:00,
2013-06-17 22:53:00,62.0,48.0,29.84,North,0,0.0,-999.0,61,0.00,,,-99.99,,2013-06-18 05:53:00,
2013-06-17 23:32:00,60.0,48.0,29.83,North,0,0.0,-999.0,64,0.00,,,-99.99,,2013-06-18 06:32:00,
2013-06-17 23:43:00,60.0,48.0,29.83,North,0,0.0,-999.0,64,0.00,,,-99.99,,2013-06-18 06:43:00,
2013-06-17 23:52:00,60.0,48.0,29.83,North,0,0.0,-999.0,64,0.00,,,-99.99,,2013-06-18 06:52:00,